sat.trackr.live / text

‹ back to catalog

SXM-8

NORAD 48838 · 2021-049A

PAYLOAD ACTIVE UNKNOWN

§ Identity

Operator
Country
US
Launch date
2021-06-06
Launch site
AFETR
Launch vehicle
Mass (kg)
RCS (m²)

Purposes: comms

External: N2YO · Heavens-Above · Gunter

§ Orbital elements

Epoch: 2026-05-24T11:56:20.241600Z

Period
1,436.09 min
Inclination
0.0282°
Eccentricity
0.0004625
Mean motion
1.00272033 rev/d
Perigee alt
35,767.0 km
Apogee alt
35,806.0 km
Semi-major
42,164.7 km
B*
0.0000e+0
RAAN
33.1572°
Arg perigee
2.0409°
Mean anomaly
300.8373°
Rev number
1,834

§ Raw data

SXM-81 48838U 21049A   26144.49745650 -.00000210  00000+0  00000+0 0  99962 48838   0.0282  33.1572 0004625   2.0409 300.8373  1.00272033 18346

JSON: /api/v1/satellites/48838 · /tle

For live sub-satellite position, see the globe view (requires WebGL).

§ Visibility from observer

Set your observer location to see the next 7 days of passes ≥ 10°. The values pass through the URL so the page stays shareable.

No JS? Fill the form by hand. The geolocation button needs JavaScript.